Time,TemperatureF,DewpointF,PressureIn,WindDirection,WindDirectionDegrees,WindSpeedMPH,WindSpeedGustMPH,Humidity,HourlyPrecipIn,Conditions,Clouds,dailyrainin,SoftwareType,DateUTC
2013-03-03 00:00:00,28.0,23.2,29.87,North,0,1.5,3.5,82,0.00,,---,0.00,VWS V14.00,2013-03-03 05:00:00,
2013-03-03 00:05:00,28.0,23.2,29.87,NNE,22,3.8,3.8,82,0.00,,---,0.00,VWS V14.00,2013-03-03 05:05:00,
2013-03-03 00:10:00,28.0,22.9,29.87,NE,45,4.9,4.9,81,0.00,,---,0.00,VWS V14.00,2013-03-03 05:10:00,
2013-03-03 00:15:00,27.6,22.5,29.87,NE,45,3.3,4.9,81,0.00,,---,0.00,VWS V14.00,2013-03-03 05:15:00,
2013-03-03 00:20:00,27.5,22.5,29.87,NNW,338,2.9,4.9,81,0.00,,---,0.00,VWS V14.00,2013-03-03 05:20:00,
2013-03-03 00:25:00,27.3,22.5,29.87,ENE,68,3.8,3.8,82,0.00,,---,0.00,VWS V14.00,2013-03-03 05:25:00,
2013-03-03 00:30:00,27.1,22.4,29.87,WNW,292,0.0,4.2,82,0.00,,---,0.00,VWS V14.00,2013-03-03 05:30:00,
2013-03-03 00:35:00,26.9,22.1,29.87,WNW,292,0.0,0.0,82,0.00,,---,0.00,VWS V14.00,2013-03-03 05:35:00,
2013-03-03 00:40:00,26.7,22.0,29.87,NE,45,0.0,2.6,82,0.00,,---,0.00,VWS V14.00,2013-03-03 05:40:00,
2013-03-03 00:45:00,26.6,21.9,29.87,NNE,22,0.0,4.0,82,0.00,,---,0.00,VWS V14.00,2013-03-03 05:45:00,
2013-03-03 00:50:00,26.4,21.7,29.87,NNE,22,1.5,4.0,82,0.00,,---,0.00,VWS V14.00,2013-03-03 05:50:00,
2013-03-03 00:55:00,26.4,21.7,29.87,NNE,22,1.3,3.5,82,0.00,,---,0.00,VWS V14.00,2013-03-03 05:55:00,
2013-03-03 01:00:00,26.2,21.5,29.86,NE,45,0.0,3.5,82,0.00,,---,0.00,VWS V14.00,2013-03-03 06:00:00,
2013-03-03 01:05:00,26.2,21.5,29.87,NE,45,0.0,0.0,82,0.00,,---,0.00,VWS V14.00,2013-03-03 06:05:00,
2013-03-03 01:10:00,25.8,21.1,29.87,NE,45,0.2,6.2,82,0.00,,---,0.00,VWS V14.00,2013-03-03 06:10:00,
2013-03-03 01:15:00,25.7,21.0,29.87,North,0,0.0,4.0,82,0.00,,---,0.00,VWS V14.00,2013-03-03 06:15:00,
2013-03-03 01:20:00,25.7,21.0,29.87,NE,45,0.0,4.0,82,0.00,,---,0.00,VWS V14.00,2013-03-03 06:20:00,
2013-03-03 01:25:00,25.5,20.8,29.87,NE,45,0.0,0.0,82,0.00,,---,0.00,VWS V14.00,2013-03-03 06:25:00,
2013-03-03 01:30:00,25.5,20.8,29.87,NE,45,0.0,1.3,82,0.00,,---,0.00,VWS V14.00,2013-03-03 06:30:00,
2013-03-03 01:35:00,25.3,20.6,29.87,NE,45,0.0,4.4,82,0.00,,---,0.00,VWS V14.00,2013-03-03 06:35:00,
2013-03-03 01:40:00,25.1,20.7,29.87,NE,45,0.0,0.0,83,0.00,,---,0.00,VWS V14.00,2013-03-03 06:40:00,
2013-03-03 01:45:00,24.9,20.5,29.87,NE,45,0.0,0.0,83,0.00,,---,0.00,VWS V14.00,2013-03-03 06:45:00,
2013-03-03 01:50:00,24.9,20.5,29.87,NE,45,1.7,1.7,83,0.00,,---,0.00,VWS V14.00,2013-03-03 06:50:00,
2013-03-03 01:55:00,24.8,20.4,29.87,North,0,2.6,2.6,83,0.00,,---,0.00,VWS V14.00,2013-03-03 06:55:00,
2013-03-03 02:00:00,24.6,20.2,29.87,North,0,0.0,0.0,83,0.00,,---,0.00,VWS V14.00,2013-03-03 07:00:00,
2013-03-03 02:05:00,24.6,20.2,29.87,West,270,0.0,0.0,83,0.00,,---,0.00,VWS V14.00,2013-03-03 07:05:00,
2013-03-03 02:10:00,24.6,20.2,29.87,West,270,0.0,0.0,83,0.00,,---,0.00,VWS V14.00,2013-03-03 07:10:00,
2013-03-03 02:15:00,24.6,20.5,29.87,West,270,2.0,2.0,84,0.00,,---,0.00,VWS V14.00,2013-03-03 07:15:00,
2013-03-03 02:20:00,24.6,20.5,29.87,West,270,0.0,0.0,84,0.00,,---,0.00,VWS V14.00,2013-03-03 07:20:00,
2013-03-03 02:25:00,24.4,20.3,29.87,West,270,0.8,4.2,84,0.00,,---,0.00,VWS V14.00,2013-03-03 07:25:00,
2013-03-03 02:30:00,24.4,20.0,29.86,West,270,1.5,1.5,83,0.00,,---,0.00,VWS V14.00,2013-03-03 07:30:00,
2013-03-03 02:35:00,24.6,20.2,29.86,West,270,5.1,5.1,83,0.00,,---,0.00,VWS V14.00,2013-03-03 07:35:00,
2013-03-03 02:40:00,24.4,20.0,29.86,West,270,5.3,5.3,83,0.00,,---,0.00,VWS V14.00,2013-03-03 07:40:00,
2013-03-03 02:45:00,24.4,20.0,29.86,West,270,0.0,5.3,83,0.00,,---,0.00,VWS V14.00,2013-03-03 07:45:00,
2013-03-03 02:50:00,24.4,20.0,29.86,West,270,0.6,0.6,83,0.00,,---,0.00,VWS V14.00,2013-03-03 07:50:00,
2013-03-03 02:55:00,24.0,19.6,29.86,West,270,2.2,5.3,83,0.00,,---,0.00,VWS V14.00,2013-03-03 07:55:00,
2013-03-03 03:00:00,24.0,19.6,29.86,North,0,0.0,0.0,83,0.00,,---,0.00,VWS V14.00,2013-03-03 08:00:00,
2013-03-03 03:06:00,24.0,19.6,29.86,North,0,0.2,0.4,83,0.00,,---,0.00,VWS V14.00,2013-03-03 08:06:00,
2013-03-03 03:11:00,24.0,19.6,29.86,North,0,0.0,0.0,83,0.00,,---,0.00,VWS V14.00,2013-03-03 08:11:00,
2013-03-03 03:16:00,24.0,19.6,29.86,North,0,0.0,0.0,83,0.00,,---,0.00,VWS V14.00,2013-03-03 08:16:00,
2013-03-03 03:21:00,24.0,19.6,29.86,NW,315,0.0,0.0,83,0.00,,---,0.00,VWS V14.00,2013-03-03 08:21:00,
2013-03-03 03:26:00,24.0,19.6,29.86,NW,315,2.4,2.4,83,0.00,,---,0.00,VWS V14.00,2013-03-03 08:26:00,
2013-03-03 03:31:00,24.0,19.9,29.86,NW,315,2.4,2.4,84,0.00,,---,0.00,VWS V14.00,2013-03-03 08:31:00,
2013-03-03 03:36:00,24.0,19.9,29.85,NW,315,5.8,5.8,84,0.00,,---,0.00,VWS V14.00,2013-03-03 08:36:00,
2013-03-03 03:41:00,24.0,19.9,29.86,NW,315,0.6,0.6,84,0.00,,---,0.00,VWS V14.00,2013-03-03 08:41:00,
2013-03-03 03:46:00,24.0,20.1,29.86,NW,315,0.0,6.0,85,0.00,,---,0.00,VWS V14.00,2013-03-03 08:46:00,
2013-03-03 03:51:00,24.0,20.1,29.86,NW,315,0.0,0.0,85,0.00,,---,0.00,VWS V14.00,2013-03-03 08:51:00,
2013-03-03 03:56:00,24.0,20.4,29.86,WNW,292,5.1,5.1,86,0.00,,---,0.00,VWS V14.00,2013-03-03 08:56:00,
2013-03-03 04:01:00,24.0,20.4,29.86,WNW,292,0.0,0.0,86,0.00,,---,0.00,VWS V14.00,2013-03-03 09:01:00,
2013-03-03 04:06:00,24.0,20.4,29.86,WNW,292,2.6,3.5,86,0.00,,---,0.00,VWS V14.00,2013-03-03 09:06:00,
2013-03-03 04:11:00,24.0,20.7,29.86,WNW,292,0.0,0.0,87,0.00,,---,0.00,VWS V14.00,2013-03-03 09:11:00,
2013-03-03 04:16:00,24.0,20.7,29.86,WNW,292,3.8,3.8,87,0.00,,---,0.00,VWS V14.00,2013-03-03 09:16:00,
2013-03-03 04:21:00,24.0,21.0,29.86,WNW,292,6.4,6.4,88,0.00,,---,0.00,VWS V14.00,2013-03-03 09:21:00,
2013-03-03 04:26:00,24.0,21.0,29.86,WNW,292,2.2,6.4,88,0.00,,---,0.00,VWS V14.00,2013-03-03 09:26:00,
2013-03-03 04:31:00,24.0,20.7,29.85,North,0,4.0,4.0,87,0.00,,---,0.00,VWS V14.00,2013-03-03 09:31:00,
2013-03-03 04:36:00,23.9,20.6,29.86,NNW,338,2.0,4.6,87,0.00,,---,0.00,VWS V14.00,2013-03-03 09:36:00,
2013-03-03 04:41:00,23.9,20.6,29.86,WNW,292,5.8,5.8,87,0.00,,---,0.00,VWS V14.00,2013-03-03 09:41:00,
2013-03-03 04:46:00,23.7,20.4,29.86,ESE,112,2.6,5.8,87,0.00,,---,0.00,VWS V14.00,2013-03-03 09:46:00,
2013-03-03 04:51:00,23.7,20.4,29.86,NW,315,3.5,3.5,87,0.00,,---,0.00,VWS V14.00,2013-03-03 09:51:00,
2013-03-03 04:56:00,23.5,19.9,29.86,NW,315,2.2,3.5,86,0.00,,---,0.00,VWS V14.00,2013-03-03 09:56:00,
2013-03-03 05:01:00,23.3,19.7,29.87,NW,315,0.8,3.8,86,0.00,,---,0.00,VWS V14.00,2013-03-03 10:01:00,
2013-03-03 05:06:00,23.1,19.5,29.87,NW,315,5.8,5.8,86,0.00,,---,0.00,VWS V14.00,2013-03-03 10:06:00,
2013-03-03 05:11:00,23.1,19.5,29.87,NW,315,2.9,7.1,86,0.00,,---,0.00,VWS V14.00,2013-03-03 10:11:00,
2013-03-03 05:16:00,23.0,19.5,29.87,NW,315,0.0,7.1,86,0.00,,---,0.00,VWS V14.00,2013-03-03 10:16:00,
2013-03-03 05:21:00,22.8,19.0,29.87,NW,315,2.6,2.6,85,0.00,,---,0.00,VWS V14.00,2013-03-03 10:21:00,
2013-03-03 05:26:00,22.8,19.0,29.87,NW,315,0.0,2.6,85,0.00,,---,0.00,VWS V14.00,2013-03-03 10:26:00,
2013-03-03 05:31:00,22.6,18.8,29.87,WNW,292,3.3,3.3,85,0.00,,---,0.00,VWS V14.00,2013-03-03 10:31:00,
2013-03-03 05:36:00,22.6,18.8,29.88,NW,315,0.0,3.3,85,0.00,,---,0.00,VWS V14.00,2013-03-03 10:36:00,
2013-03-03 05:41:00,22.4,18.6,29.88,NW,315,0.0,0.0,85,0.00,,---,0.00,VWS V14.00,2013-03-03 10:41:00,
2013-03-03 05:46:00,22.2,18.4,29.88,NW,315,0.0,0.0,85,0.00,,---,0.00,VWS V14.00,2013-03-03 10:46:00,
2013-03-03 05:51:00,22.2,18.4,29.88,NW,315,1.3,1.3,85,0.00,,---,0.00,VWS V14.00,2013-03-03 10:51:00,
2013-03-03 05:56:00,22.2,18.4,29.88,SSW,202,3.5,3.5,85,0.00,,---,0.00,VWS V14.00,2013-03-03 10:56:00,
2013-03-03 06:01:00,22.1,18.3,29.88,SSW,202,0.0,0.0,85,0.00,,---,0.00,VWS V14.00,2013-03-03 11:01:00,
2013-03-03 06:06:00,21.9,18.1,29.88,SSW,202,0.6,0.6,85,0.00,,---,0.00,VWS V14.00,2013-03-03 11:06:00,
2013-03-03 06:11:00,21.9,18.1,29.89,SSW,202,1.3,1.3,85,0.00,,---,0.00,VWS V14.00,2013-03-03 11:11:00,
2013-03-03 06:16:00,21.9,18.1,29.89,SSW,202,2.0,2.0,85,0.00,,---,0.00,VWS V14.00,2013-03-03 11:16:00,
2013-03-03 06:21:00,21.9,18.1,29.88,SSW,202,0.0,0.0,85,0.00,,---,0.00,VWS V14.00,2013-03-03 11:21:00,
2013-03-03 06:26:00,21.9,18.1,29.89,West,270,2.6,6.2,85,0.00,,---,0.00,VWS V14.00,2013-03-03 11:26:00,
2013-03-03 06:31:00,21.9,18.1,29.88,West,270,0.0,0.0,85,0.00,,---,0.00,VWS V14.00,2013-03-03 11:31:00,
2013-03-03 06:36:00,21.9,18.1,29.88,West,270,0.0,1.3,85,0.00,,---,0.00,VWS V14.00,2013-03-03 11:36:00,
2013-03-03 06:41:00,21.9,18.1,29.88,West,270,2.0,2.0,85,0.00,,---,0.00,VWS V14.00,2013-03-03 11:41:00,
2013-03-03 06:46:00,21.9,18.1,29.88,West,270,1.5,2.0,85,0.00,,---,0.00,VWS V14.00,2013-03-03 11:46:00,
2013-03-03 06:52:00,21.9,18.1,29.89,West,270,0.0,0.0,85,0.00,,---,0.00,VWS V14.00,2013-03-03 11:52:00,
2013-03-03 06:56:00,21.9,18.1,29.89,NW,315,0.0,1.3,85,0.00,,---,0.00,VWS V14.00,2013-03-03 11:56:00,
2013-03-03 07:02:00,21.9,18.1,29.89,NW,315,2.4,2.4,85,0.00,,---,0.00,VWS V14.00,2013-03-03 12:02:00,
2013-03-03 07:06:00,22.1,18.3,29.89,NW,315,2.4,2.4,85,0.00,,---,0.00,VWS V14.00,2013-03-03 12:06:00,
2013-03-03 07:12:00,22.2,18.4,29.89,NW,315,0.6,0.6,85,0.00,,---,0.00,VWS V14.00,2013-03-03 12:12:00,
2013-03-03 07:17:00,22.2,18.4,29.89,NW,315,1.1,1.1,85,0.00,,---,0.00,VWS V14.00,2013-03-03 12:17:00,
2013-03-03 07:22:00,22.2,18.4,29.89,NW,315,0.2,0.2,85,0.00,,---,0.00,VWS V14.00,2013-03-03 12:22:00,
2013-03-03 07:27:00,22.8,19.0,29.89,NW,315,1.3,4.6,85,0.00,,---,0.00,VWS V14.00,2013-03-03 12:27:00,
2013-03-03 07:32:00,22.8,19.0,29.89,NW,315,2.6,2.6,85,0.00,,---,0.00,VWS V14.00,2013-03-03 12:32:00,
2013-03-03 07:37:00,23.0,19.2,29.89,NW,315,2.4,2.6,85,0.00,,---,0.00,VWS V14.00,2013-03-03 12:37:00,
2013-03-03 07:42:00,23.5,19.4,29.89,NW,315,1.3,2.6,84,0.00,,---,0.00,VWS V14.00,2013-03-03 12:42:00,
2013-03-03 07:47:00,23.9,19.8,29.89,NNW,338,0.0,2.6,84,0.00,,---,0.00,VWS V14.00,2013-03-03 12:47:00,
2013-03-03 07:52:00,24.0,19.9,29.90,NNW,338,0.0,0.0,84,0.00,,---,0.00,VWS V14.00,2013-03-03 12:52:00,
2013-03-03 07:57:00,24.4,20.0,29.90,ENE,68,1.1,5.8,83,0.00,,---,0.00,VWS V14.00,2013-03-03 12:57:00,
2013-03-03 08:02:00,24.6,20.2,29.90,ENE,68,0.0,0.0,83,0.00,,---,0.00,VWS V14.00,2013-03-03 13:02:00,
2013-03-03 08:07:00,24.9,20.2,29.90,ENE,68,0.0,2.2,82,0.00,,---,0.00,VWS V14.00,2013-03-03 13:07:00,
2013-03-03 08:12:00,25.5,20.5,29.90,West,270,0.0,2.2,81,0.00,,---,0.00,VWS V14.00,2013-03-03 13:12:00,
2013-03-03 08:17:00,25.8,20.5,29.90,WNW,292,0.0,3.5,80,0.00,,---,0.00,VWS V14.00,2013-03-03 13:17:00,
2013-03-03 08:22:00,26.4,21.1,29.90,WNW,292,2.2,2.2,80,0.00,,---,0.00,VWS V14.00,2013-03-03 13:22:00,
2013-03-03 08:27:00,26.7,20.8,29.90,WNW,292,2.2,4.0,78,0.00,,---,0.00,VWS V14.00,2013-03-03 13:27:00,
2013-03-03 08:32:00,27.1,20.9,29.91,West,270,6.7,6.7,77,0.00,,---,0.00,VWS V14.00,2013-03-03 13:32:00,
2013-03-03 08:37:00,27.5,21.2,29.90,West,270,3.5,6.7,77,0.00,,---,0.00,VWS V14.00,2013-03-03 13:37:00,
2013-03-03 08:42:00,27.6,20.7,29.90,WNW,292,1.3,5.8,75,0.00,,---,0.00,VWS V14.00,2013-03-03 13:42:00,
2013-03-03 08:47:00,28.2,21.3,29.91,NNW,338,3.5,5.8,75,0.00,,---,0.00,VWS V14.00,2013-03-03 13:47:00,
2013-03-03 08:52:00,28.2,20.7,29.91,NW,315,4.2,4.2,73,0.00,,---,0.00,VWS V14.00,2013-03-03 13:52:00,
2013-03-03 08:57:00,28.2,20.7,29.90,NW,315,0.0,6.7,73,0.00,,---,0.00,VWS V14.00,2013-03-03 13:57:00,
2013-03-03 09:02:00,28.2,20.7,29.91,NW,315,3.8,3.8,73,0.00,,---,0.00,VWS V14.00,2013-03-03 14:02:00,
2013-03-03 09:07:00,28.5,20.6,29.91,ENE,68,6.2,6.2,72,0.00,,---,0.00,VWS V14.00,2013-03-03 14:07:00,
2013-03-03 09:12:00,28.7,20.8,29.90,NNE,22,1.5,2.2,72,0.00,,---,0.00,VWS V14.00,2013-03-03 14:12:00,
2013-03-03 09:17:00,28.9,20.7,29.91,ENE,68,1.7,4.4,71,0.00,,---,0.00,VWS V14.00,2013-03-03 14:17:00,
2013-03-03 09:22:00,29.8,21.9,29.91,NW,315,5.3,5.3,72,0.00,,---,0.00,VWS V14.00,2013-03-03 14:22:00,
2013-03-03 09:27:00,30.0,21.8,29.91,NNE,22,4.6,5.3,71,0.00,,---,0.00,VWS V14.00,2013-03-03 14:27:00,
2013-03-03 09:32:00,30.7,22.4,29.91,WNW,292,2.0,2.0,71,0.00,,---,0.00,VWS V14.00,2013-03-03 14:32:00,
2013-03-03 09:37:00,31.1,22.5,29.91,NW,315,3.1,3.1,70,0.00,,---,0.00,VWS V14.00,2013-03-03 14:37:00,
2013-03-03 09:42:00,31.2,22.6,29.90,NW,315,4.6,5.3,70,0.00,,---,0.00,VWS V14.00,2013-03-03 14:42:00,
2013-03-03 09:47:00,31.2,22.2,29.90,WNW,292,5.5,5.5,69,0.00,,---,0.00,VWS V14.00,2013-03-03 14:47:00,
2013-03-03 09:52:00,30.7,21.8,29.91,WNW,292,2.6,4.6,69,0.00,,---,0.00,VWS V14.00,2013-03-03 14:52:00,
2013-03-03 09:57:00,30.5,21.6,29.90,WNW,292,3.8,5.1,69,0.00,,---,0.00,VWS V14.00,2013-03-03 14:57:00,
2013-03-03 10:02:00,30.5,21.6,29.90,NE,45,0.0,0.0,69,0.00,,---,0.00,VWS V14.00,2013-03-03 15:02:00,
2013-03-03 10:07:00,31.1,22.5,29.90,WSW,248,2.9,6.7,70,0.00,,---,0.00,VWS V14.00,2013-03-03 15:07:00,
2013-03-03 10:12:00,31.6,22.6,29.90,WNW,292,5.1,5.8,69,0.00,,---,0.00,VWS V14.00,2013-03-03 15:12:00,
2013-03-03 10:17:00,31.6,22.3,29.90,NW,315,4.9,5.8,68,0.00,,---,0.00,VWS V14.00,2013-03-03 15:17:00,
2013-03-03 10:23:00,31.6,22.3,29.91,North,0,0.0,4.0,68,0.00,,---,0.00,VWS V14.00,2013-03-03 15:23:00,
2013-03-03 10:27:00,31.6,21.9,29.91,North,0,2.2,6.9,67,0.00,,---,0.00,VWS V14.00,2013-03-03 15:27:00,
2013-03-03 10:32:00,32.1,22.8,29.91,WNW,292,2.0,2.0,68,0.00,,---,0.00,VWS V14.00,2013-03-03 15:32:00,
2013-03-03 10:37:00,32.9,23.2,29.91,ENE,68,6.4,6.4,67,0.00,,---,0.00,VWS V14.00,2013-03-03 15:37:00,
2013-03-03 10:43:00,32.7,22.6,29.91,ENE,68,1.1,4.4,66,0.00,,---,0.00,VWS V14.00,2013-03-03 15:43:00,
2013-03-03 10:48:00,32.5,22.4,29.91,NW,315,4.6,4.6,66,0.00,,---,0.00,VWS V14.00,2013-03-03 15:48:00,
2013-03-03 10:53:00,32.5,22.4,29.91,NNE,22,2.6,6.4,66,0.00,,---,0.00,VWS V14.00,2013-03-03 15:53:00,
2013-03-03 10:58:00,32.5,22.4,29.91,WNW,292,0.6,6.4,66,0.00,,---,0.00,VWS V14.00,2013-03-03 15:58:00,
2013-03-03 11:03:00,32.7,22.2,29.91,NE,45,0.4,0.4,65,0.00,,---,0.00,VWS V14.00,2013-03-03 16:03:00,
2013-03-03 11:08:00,32.7,22.6,29.91,ENE,68,0.0,6.2,66,0.00,,---,0.00,VWS V14.00,2013-03-03 16:08:00,
2013-03-03 11:13:00,32.9,22.8,29.90,NE,45,6.4,6.4,66,0.00,,---,0.00,VWS V14.00,2013-03-03 16:13:00,
2013-03-03 11:18:00,32.7,22.2,29.91,NNE,22,0.6,6.4,65,0.00,,---,0.00,VWS V14.00,2013-03-03 16:18:00,
2013-03-03 11:23:00,32.7,22.2,29.91,NW,315,2.0,2.9,65,0.00,,---,0.00,VWS V14.00,2013-03-03 16:23:00,
2013-03-03 11:28:00,32.7,22.6,29.91,West,270,6.9,6.9,66,0.00,,---,0.00,VWS V14.00,2013-03-03 16:28:00,
2013-03-03 11:33:00,32.9,22.4,29.91,WNW,292,5.5,5.5,65,0.00,,---,0.00,VWS V14.00,2013-03-03 16:33:00,
2013-03-03 11:38:00,33.4,23.3,29.90,NW,315,0.0,5.5,66,0.00,,---,0.00,VWS V14.00,2013-03-03 16:38:00,
2013-03-03 11:43:00,33.0,22.5,29.90,WNW,292,5.3,5.3,65,0.00,,---,0.00,VWS V14.00,2013-03-03 16:43:00,
2013-03-03 11:48:00,33.6,23.1,29.90,NW,315,2.0,5.3,65,0.00,,---,0.00,VWS V14.00,2013-03-03 16:48:00,
2013-03-03 11:53:00,33.6,22.7,29.91,WNW,292,1.1,4.2,64,0.00,,---,0.00,VWS V14.00,2013-03-03 16:53:00,
2013-03-03 11:58:00,33.8,22.9,29.91,NW,315,4.0,4.2,64,0.00,,---,0.00,VWS V14.00,2013-03-03 16:58:00,
2013-03-03 12:03:00,34.3,23.4,29.91,WNW,292,3.3,4.6,64,0.00,,---,0.00,VWS V14.00,2013-03-03 17:03:00,
2013-03-03 12:08:00,34.3,23.8,29.90,NW,315,3.5,4.6,65,0.00,,---,0.00,VWS V14.00,2013-03-03 17:08:00,
2013-03-03 12:13:00,34.7,23.8,29.90,WNW,292,4.6,5.8,64,0.00,,---,0.00,VWS V14.00,2013-03-03 17:13:00,
2013-03-03 12:18:00,34.8,23.9,29.90,WNW,292,6.2,6.2,64,0.00,,---,0.00,VWS V14.00,2013-03-03 17:18:00,
2013-03-03 12:23:00,34.7,23.4,29.90,West,270,4.9,4.9,63,0.00,,---,0.00,VWS V14.00,2013-03-03 17:23:00,
2013-03-03 12:28:00,34.7,23.4,29.90,ENE,68,14.3,14.3,63,0.00,,---,0.00,VWS V14.00,2013-03-03 17:28:00,
2013-03-03 12:33:00,34.7,23.8,29.89,WNW,292,5.1,5.1,64,0.00,,---,0.00,VWS V14.00,2013-03-03 17:33:00,
2013-03-03 12:38:00,35.2,24.3,29.89,WNW,292,3.8,5.1,64,0.00,,---,0.00,VWS V14.00,2013-03-03 17:38:00,
2013-03-03 12:43:00,35.6,24.6,29.89,WNW,292,4.4,4.4,64,0.00,,---,0.00,VWS V14.00,2013-03-03 17:43:00,
2013-03-03 12:48:00,35.7,24.7,29.89,WNW,292,1.7,4.4,64,0.00,,---,0.00,VWS V14.00,2013-03-03 17:48:00,
2013-03-03 12:53:00,36.1,24.7,29.88,WNW,292,3.5,3.8,63,0.00,,---,0.00,VWS V14.00,2013-03-03 17:53:00,
2013-03-03 12:58:00,36.1,24.7,29.89,WNW,292,5.8,5.8,63,0.00,,---,0.00,VWS V14.00,2013-03-03 17:58:00,
2013-03-03 13:03:00,36.1,24.7,29.88,NW,315,0.0,6.9,63,0.00,,---,0.00,VWS V14.00,2013-03-03 18:03:00,
2013-03-03 13:08:00,36.1,24.7,29.88,WNW,292,4.4,6.9,63,0.00,,---,0.00,VWS V14.00,2013-03-03 18:08:00,
2013-03-03 13:13:00,36.3,24.9,29.88,NW,315,2.6,2.6,63,0.00,,---,0.00,VWS V14.00,2013-03-03 18:13:00,
2013-03-03 13:18:00,36.5,25.1,29.88,NNW,338,1.5,2.6,63,0.00,,---,0.00,VWS V14.00,2013-03-03 18:18:00,
2013-03-03 13:23:00,36.6,24.8,29.88,West,270,5.5,5.5,62,0.00,,---,0.00,VWS V14.00,2013-03-03 18:23:00,
2013-03-03 13:28:00,37.2,25.4,29.89,NW,315,0.0,5.5,62,0.00,,---,0.00,VWS V14.00,2013-03-03 18:28:00,
2013-03-03 13:33:00,37.2,25.4,29.88,WNW,292,10.0,10.0,62,0.00,,---,0.00,VWS V14.00,2013-03-03 18:33:00,
2013-03-03 13:38:00,37.0,25.2,29.89,NW,315,6.0,10.0,62,0.00,,---,0.00,VWS V14.00,2013-03-03 18:38:00,
2013-03-03 13:43:00,36.8,24.6,29.88,NNW,338,0.0,7.6,61,0.00,,---,0.00,VWS V14.00,2013-03-03 18:43:00,
2013-03-03 13:48:00,36.6,24.4,29.88,WNW,292,0.0,7.6,61,0.00,,---,0.00,VWS V14.00,2013-03-03 18:48:00,
2013-03-03 13:54:00,36.6,24.8,29.89,WNW,292,1.3,5.5,62,0.00,,---,0.00,VWS V14.00,2013-03-03 18:54:00,
2013-03-03 13:59:00,36.6,24.8,29.88,West,270,3.8,5.5,62,0.00,,---,0.00,VWS V14.00,2013-03-03 18:59:00,
2013-03-03 14:04:00,36.6,24.8,29.88,WNW,292,4.0,4.0,62,0.00,,---,0.00,VWS V14.00,2013-03-03 19:04:00,
2013-03-03 14:09:00,36.6,24.8,29.88,WNW,292,1.1,4.0,62,0.00,,---,0.00,VWS V14.00,2013-03-03 19:09:00,
2013-03-03 14:14:00,36.3,24.5,29.87,ENE,68,7.6,7.6,62,0.00,,---,0.00,VWS V14.00,2013-03-03 19:14:00,
2013-03-03 14:19:00,35.9,24.5,29.87,NNW,338,0.8,7.6,63,0.00,,---,0.00,VWS V14.00,2013-03-03 19:19:00,
2013-03-03 14:24:00,35.7,24.0,29.87,ENE,68,3.1,3.3,62,0.00,,---,0.00,VWS V14.00,2013-03-03 19:24:00,
2013-03-03 14:29:00,35.7,24.4,29.86,West,270,4.4,4.4,63,0.00,,---,0.00,VWS V14.00,2013-03-03 19:29:00,
2013-03-03 14:34:00,35.7,24.4,29.87,West,270,2.9,2.9,63,0.00,,---,0.00,VWS V14.00,2013-03-03 19:34:00,
2013-03-03 14:39:00,35.4,23.7,29.87,NE,45,2.2,3.1,62,0.00,,---,0.00,VWS V14.00,2013-03-03 19:39:00,
2013-03-03 14:44:00,35.4,24.1,29.87,NNE,22,0.0,2.2,63,0.00,,---,0.00,VWS V14.00,2013-03-03 19:44:00,
2013-03-03 14:49:00,35.7,24.4,29.87,NW,315,5.5,5.5,63,0.00,,---,0.00,VWS V14.00,2013-03-03 19:49:00,
2013-03-03 14:54:00,35.9,24.5,29.87,WNW,292,0.8,3.1,63,0.00,,---,0.00,VWS V14.00,2013-03-03 19:54:00,
2013-03-03 14:59:00,35.7,24.4,29.86,North,0,2.6,3.1,63,0.00,,---,0.00,VWS V14.00,2013-03-03 19:59:00,
2013-03-03 15:04:00,35.9,24.5,29.87,NW,315,0.8,0.8,63,0.00,,---,0.00,VWS V14.00,2013-03-03 20:04:00,
2013-03-03 15:09:00,35.9,24.5,29.87,WNW,292,1.7,1.7,63,0.00,,---,0.00,VWS V14.00,2013-03-03 20:09:00,
2013-03-03 15:14:00,35.7,24.0,29.87,West,270,6.0,6.0,62,0.00,,---,0.00,VWS V14.00,2013-03-03 20:14:00,
2013-03-03 15:19:00,35.7,24.0,29.87,West,270,4.6,6.0,62,0.00,,---,0.00,VWS V14.00,2013-03-03 20:19:00,
2013-03-03 15:24:00,35.7,24.0,29.87,North,0,0.0,2.6,62,0.00,,---,0.00,VWS V14.00,2013-03-03 20:24:00,
2013-03-03 15:29:00,35.7,24.0,29.87,WNW,292,5.5,5.5,62,0.00,,---,0.00,VWS V14.00,2013-03-03 20:29:00,
2013-03-03 15:34:00,35.7,24.0,29.87,NNW,338,0.8,0.8,62,0.00,,---,0.00,VWS V14.00,2013-03-03 20:34:00,
2013-03-03 15:39:00,35.4,23.7,29.87,WNW,292,3.1,4.4,62,0.00,,---,0.00,VWS V14.00,2013-03-03 20:39:00,
2013-03-03 15:44:00,35.6,23.9,29.87,WNW,292,4.4,4.4,62,0.00,,---,0.00,VWS V14.00,2013-03-03 20:44:00,
2013-03-03 15:49:00,35.4,23.7,29.87,NW,315,1.3,4.4,62,0.00,,---,0.00,VWS V14.00,2013-03-03 20:49:00,
2013-03-03 15:54:00,35.4,23.7,29.87,WSW,248,2.0,4.6,62,0.00,,---,0.00,VWS V14.00,2013-03-03 20:54:00,
2013-03-03 15:59:00,35.4,23.3,29.87,WSW,248,3.1,5.8,61,0.00,,---,0.00,VWS V14.00,2013-03-03 20:59:00,
2013-03-03 16:04:00,35.2,23.1,29.87,NW,315,0.0,3.8,61,0.00,,---,0.00,VWS V14.00,2013-03-03 21:04:00,
2013-03-03 16:09:00,35.0,22.9,29.87,NW,315,0.8,3.8,61,0.00,,---,0.00,VWS V14.00,2013-03-03 21:09:00,
2013-03-03 16:14:00,34.8,22.7,29.88,WNW,292,0.0,0.2,61,0.00,,---,0.00,VWS V14.00,2013-03-03 21:14:00,
2013-03-03 16:19:00,34.8,22.7,29.88,NE,45,6.2,6.2,61,0.00,,---,0.00,VWS V14.00,2013-03-03 21:19:00,
2013-03-03 16:24:00,34.7,22.6,29.87,NE,45,1.3,6.2,61,0.00,,---,0.00,VWS V14.00,2013-03-03 21:24:00,
2013-03-03 16:29:00,34.5,22.5,29.88,WNW,292,0.0,6.2,61,0.00,,---,0.00,VWS V14.00,2013-03-03 21:29:00,
2013-03-03 16:34:00,34.3,22.6,29.87,NW,315,0.6,6.2,62,0.00,,---,0.00,VWS V14.00,2013-03-03 21:34:00,
2013-03-03 16:39:00,34.3,22.6,29.87,WSW,248,4.0,7.8,62,0.00,,---,0.00,VWS V14.00,2013-03-03 21:39:00,
2013-03-03 16:44:00,34.3,22.6,29.87,ENE,68,2.2,3.5,62,0.00,,---,0.00,VWS V14.00,2013-03-03 21:44:00,
2013-03-03 16:49:00,34.3,22.6,29.88,West,270,1.7,3.5,62,0.00,,---,0.00,VWS V14.00,2013-03-03 21:49:00,
2013-03-03 16:54:00,34.1,22.5,29.88,NE,45,2.2,8.9,62,0.00,,---,0.00,VWS V14.00,2013-03-03 21:54:00,
2013-03-03 16:59:00,33.9,22.6,29.88,West,270,2.6,8.9,63,0.00,,---,0.00,VWS V14.00,2013-03-03 21:59:00,
2013-03-03 17:05:00,33.6,22.0,29.88,ENE,68,16.5,16.5,62,0.00,,---,0.00,VWS V14.00,2013-03-03 22:05:00,
2013-03-03 17:10:00,33.2,22.0,29.87,WNW,292,0.8,16.5,63,0.00,,---,0.00,VWS V14.00,2013-03-03 22:10:00,
2013-03-03 17:15:00,33.0,21.8,29.88,WNW,292,3.1,6.2,63,0.00,,---,0.00,VWS V14.00,2013-03-03 22:15:00,
2013-03-03 17:20:00,32.9,21.7,29.88,NNW,338,3.8,6.2,63,0.00,,---,0.00,VWS V14.00,2013-03-03 22:20:00,
2013-03-03 17:25:00,32.7,21.9,29.88,WNW,292,0.0,4.9,64,0.00,,---,0.00,VWS V14.00,2013-03-03 22:25:00,
2013-03-03 17:30:00,32.3,21.5,29.88,WNW,292,5.5,5.5,64,0.00,,---,0.00,VWS V14.00,2013-03-03 22:30:00,
2013-03-03 17:35:00,31.8,21.4,29.89,NNE,22,0.0,5.5,65,0.00,,---,0.00,VWS V14.00,2013-03-03 22:35:00,
2013-03-03 17:40:00,31.6,21.2,29.89,ENE,68,4.0,5.5,65,0.00,,---,0.00,VWS V14.00,2013-03-03 22:40:00,
2013-03-03 17:45:00,31.2,20.8,29.89,NNW,338,4.4,4.4,65,0.00,,---,0.00,VWS V14.00,2013-03-03 22:45:00,
2013-03-03 17:50:00,30.9,20.5,29.90,ENE,68,0.0,4.4,65,0.00,,---,0.00,VWS V14.00,2013-03-03 22:50:00,
2013-03-03 17:55:00,30.7,20.7,29.90,North,0,0.0,2.9,66,0.00,,---,0.00,VWS V14.00,2013-03-03 22:55:00,
2013-03-03 18:00:00,30.3,20.3,29.90,North,0,2.4,2.9,66,0.00,,---,0.00,VWS V14.00,2013-03-03 23:00:00,
2013-03-03 18:05:00,30.0,20.0,29.90,NW,315,0.0,2.4,66,0.00,,---,0.00,VWS V14.00,2013-03-03 23:05:00,
2013-03-03 18:10:00,29.6,19.6,29.90,NW,315,1.5,1.5,66,0.00,,---,0.00,VWS V14.00,2013-03-03 23:10:00,
2013-03-03 18:15:00,29.4,19.8,29.91,WNW,292,1.1,5.1,67,0.00,,---,0.00,VWS V14.00,2013-03-03 23:15:00,
2013-03-03 18:20:00,29.1,19.5,29.91,WNW,292,1.3,1.3,67,0.00,,---,0.00,VWS V14.00,2013-03-03 23:20:00,
2013-03-03 18:25:00,28.9,19.7,29.91,WNW,292,0.8,3.5,68,0.00,,---,0.00,VWS V14.00,2013-03-03 23:25:00,
2013-03-03 18:30:00,28.5,19.3,29.91,WNW,292,0.0,0.0,68,0.00,,---,0.00,VWS V14.00,2013-03-03 23:30:00,
2013-03-03 18:35:00,28.5,19.3,29.91,North,0,0.0,0.0,68,0.00,,---,0.00,VWS V14.00,2013-03-03 23:35:00,
2013-03-03 18:40:00,28.0,19.2,29.91,North,0,0.0,0.0,69,0.00,,---,0.00,VWS V14.00,2013-03-03 23:40:00,
2013-03-03 18:45:00,27.6,18.8,29.91,North,0,0.0,0.0,69,0.00,,---,0.00,VWS V14.00,2013-03-03 23:45:00,
2013-03-03 18:50:00,27.5,19.0,29.91,NNE,22,1.3,1.3,70,0.00,,---,0.00,VWS V14.00,2013-03-03 23:50:00,
2013-03-03 18:55:00,27.3,19.1,29.91,ENE,68,2.2,2.2,71,0.00,,---,0.00,VWS V14.00,2013-03-03 23:55:00,
2013-03-03 19:00:00,27.3,18.8,29.91,ENE,68,0.4,0.4,70,0.00,,---,0.00,VWS V14.00,2013-03-04 00:00:00,
2013-03-03 19:05:00,27.3,18.8,29.91,ENE,68,0.0,0.4,70,0.00,,---,0.00,VWS V14.00,2013-03-04 00:05:00,
2013-03-03 19:11:00,27.1,19.0,29.91,ENE,68,0.0,0.0,71,0.00,,---,0.00,VWS V14.00,2013-03-04 00:11:00,
2013-03-03 19:16:00,27.1,19.0,29.92,NE,45,0.0,4.2,71,0.00,,---,0.00,VWS V14.00,2013-03-04 00:16:00,
2013-03-03 19:21:00,27.1,19.0,29.92,NE,45,0.0,0.0,71,0.00,,---,0.00,VWS V14.00,2013-03-04 00:21:00,
2013-03-03 19:26:00,26.9,18.8,29.92,NE,45,0.6,1.1,71,0.00,,---,0.00,VWS V14.00,2013-03-04 00:26:00,
2013-03-03 19:31:00,26.7,18.6,29.92,NE,45,0.0,0.0,71,0.00,,---,0.00,VWS V14.00,2013-03-04 00:31:00,
2013-03-03 19:36:00,26.6,18.5,29.92,NE,45,0.0,6.4,71,0.00,,---,0.00,VWS V14.00,2013-03-04 00:36:00,
2013-03-03 19:41:00,26.4,18.6,29.92,WNW,292,2.9,2.9,72,0.00,,---,0.00,VWS V14.00,2013-03-04 00:41:00,
2013-03-03 19:46:00,26.4,18.6,29.92,WNW,292,0.4,2.9,72,0.00,,---,0.00,VWS V14.00,2013-03-04 00:46:00,
2013-03-03 19:51:00,26.4,18.6,29.93,WNW,292,2.9,2.9,72,0.00,,---,0.00,VWS V14.00,2013-03-04 00:51:00,
2013-03-03 19:56:00,26.2,18.7,29.93,WNW,292,0.0,2.9,73,0.00,,---,0.00,VWS V14.00,2013-03-04 00:56:00,
2013-03-03 20:01:00,26.0,18.5,29.92,WNW,292,1.7,1.7,73,0.00,,---,0.00,VWS V14.00,2013-03-04 01:01:00,
2013-03-03 20:06:00,25.8,18.4,29.92,WNW,292,0.0,1.7,73,0.00,,---,0.00,VWS V14.00,2013-03-04 01:06:00,
2013-03-03 20:11:00,25.8,18.7,29.93,WNW,292,1.3,1.3,74,0.00,,---,0.00,VWS V14.00,2013-03-04 01:11:00,
2013-03-03 20:16:00,25.8,18.7,29.92,WNW,292,0.0,1.3,74,0.00,,---,0.00,VWS V14.00,2013-03-04 01:16:00,
2013-03-03 20:21:00,25.7,18.6,29.93,WNW,292,2.4,2.4,74,0.00,,---,0.00,VWS V14.00,2013-03-04 01:21:00,
2013-03-03 20:26:00,25.5,18.4,29.93,WNW,292,1.5,3.1,74,0.00,,---,0.00,VWS V14.00,2013-03-04 01:26:00,
2013-03-03 20:31:00,25.5,18.4,29.93,WNW,292,0.0,0.0,74,0.00,,---,0.00,VWS V14.00,2013-03-04 01:31:00,
2013-03-03 20:36:00,25.5,18.7,29.92,NW,315,0.0,3.1,75,0.00,,---,0.00,VWS V14.00,2013-03-04 01:36:00,
2013-03-03 20:41:00,25.5,18.7,29.92,North,0,0.0,0.0,75,0.00,,---,0.00,VWS V14.00,2013-03-04 01:41:00,
2013-03-03 20:46:00,25.5,18.7,29.92,NNW,338,0.0,1.7,75,0.00,,---,0.00,VWS V14.00,2013-03-04 01:46:00,
2013-03-03 20:51:00,25.5,18.7,29.92,NNW,338,0.0,2.0,75,0.00,,---,0.00,VWS V14.00,2013-03-04 01:51:00,
2013-03-03 20:56:00,25.3,18.5,29.93,WNW,292,1.5,2.0,75,0.00,,---,0.00,VWS V14.00,2013-03-04 01:56:00,
2013-03-03 21:01:00,25.3,18.5,29.93,WNW,292,4.2,4.2,75,0.00,,---,0.00,VWS V14.00,2013-03-04 02:01:00,
2013-03-03 21:06:00,25.3,18.5,29.93,WNW,292,2.6,4.2,75,0.00,,---,0.00,VWS V14.00,2013-03-04 02:06:00,
2013-03-03 21:11:00,25.5,18.7,29.93,WNW,292,0.0,0.0,75,0.00,,---,0.00,VWS V14.00,2013-03-04 02:11:00,
2013-03-03 21:16:00,25.5,18.7,29.93,WNW,292,6.2,6.2,75,0.00,,---,0.00,VWS V14.00,2013-03-04 02:16:00,
2013-03-03 21:21:00,25.5,18.7,29.93,WNW,292,3.8,6.0,75,0.00,,---,0.00,VWS V14.00,2013-03-04 02:21:00,
2013-03-03 21:26:00,25.5,18.7,29.93,WNW,292,3.3,6.0,75,0.00,,---,0.00,VWS V14.00,2013-03-04 02:26:00,
2013-03-03 21:31:00,25.5,18.4,29.93,NE,45,0.6,1.7,74,0.00,,---,0.00,VWS V14.00,2013-03-04 02:31:00,
2013-03-03 21:36:00,25.5,18.7,29.94,North,0,3.3,3.3,75,0.00,,---,0.00,VWS V14.00,2013-03-04 02:36:00,
2013-03-03 21:41:00,25.3,18.5,29.93,NNE,22,0.0,0.0,75,0.00,,---,0.00,VWS V14.00,2013-03-04 02:41:00,
2013-03-03 21:46:00,25.3,18.5,29.94,West,270,4.2,4.2,75,0.00,,---,0.00,VWS V14.00,2013-03-04 02:46:00,
2013-03-03 21:51:00,25.3,18.5,29.93,West,270,4.2,4.2,75,0.00,,---,0.00,VWS V14.00,2013-03-04 02:51:00,
2013-03-03 21:56:00,25.3,18.5,29.93,West,270,2.9,4.2,75,0.00,,---,0.00,VWS V14.00,2013-03-04 02:56:00,
2013-03-03 22:01:00,24.9,18.1,29.93,West,270,1.3,3.5,75,0.00,,---,0.00,VWS V14.00,2013-03-04 03:01:00,
2013-03-03 22:07:00,24.9,18.1,29.93,West,270,5.1,5.1,75,0.00,,---,0.00,VWS V14.00,2013-03-04 03:07:00,
2013-03-03 22:12:00,24.9,18.1,29.93,West,270,2.9,2.9,75,0.00,,---,0.00,VWS V14.00,2013-03-04 03:12:00,
2013-03-03 22:17:00,24.9,18.1,29.93,West,270,4.6,4.6,75,0.00,,---,0.00,VWS V14.00,2013-03-04 03:17:00,
2013-03-03 22:22:00,24.9,18.1,29.93,West,270,6.4,6.4,75,0.00,,---,0.00,VWS V14.00,2013-03-04 03:22:00,
2013-03-03 22:27:00,24.9,18.1,29.93,WNW,292,0.8,6.4,75,0.00,,---,0.00,VWS V14.00,2013-03-04 03:27:00,
2013-03-03 22:32:00,24.9,18.1,29.93,WNW,292,4.4,4.4,75,0.00,,---,0.00,VWS V14.00,2013-03-04 03:32:00,
2013-03-03 22:37:00,24.9,18.1,29.94,WNW,292,1.3,4.4,75,0.00,,---,0.00,VWS V14.00,2013-03-04 03:37:00,
2013-03-03 22:42:00,24.9,18.1,29.93,WNW,292,1.3,1.3,75,0.00,,---,0.00,VWS V14.00,2013-03-04 03:42:00,
2013-03-03 22:47:00,24.9,18.1,29.93,NNW,338,0.0,5.5,75,0.00,,---,0.00,VWS V14.00,2013-03-04 03:47:00,
2013-03-03 22:52:00,24.9,18.1,29.93,NNE,22,0.0,2.6,75,0.00,,---,0.00,VWS V14.00,2013-03-04 03:52:00,
2013-03-03 22:57:00,24.8,18.0,29.93,NNE,22,0.0,2.6,75,0.00,,---,0.00,VWS V14.00,2013-03-04 03:57:00,
2013-03-03 23:02:00,24.6,17.8,29.93,NNE,22,2.0,2.0,75,0.00,,---,0.00,VWS V14.00,2013-03-04 04:02:00,
2013-03-03 23:07:00,24.4,17.6,29.93,NNE,22,2.4,2.4,75,0.00,,---,0.00,VWS V14.00,2013-03-04 04:07:00,
2013-03-03 23:12:00,24.4,17.6,29.93,NNE,22,0.0,0.0,75,0.00,,---,0.00,VWS V14.00,2013-03-04 04:12:00,
2013-03-03 23:17:00,24.4,17.6,29.93,NNE,22,0.6,2.0,75,0.00,,---,0.00,VWS V14.00,2013-03-04 04:17:00,
2013-03-03 23:22:00,24.4,17.6,29.93,NE,45,0.0,1.1,75,0.00,,---,0.00,VWS V14.00,2013-03-04 04:22:00,
2013-03-03 23:27:00,24.0,17.2,29.93,West,270,1.1,2.9,75,0.00,,---,0.00,VWS V14.00,2013-03-04 04:27:00,
2013-03-03 23:32:00,24.0,17.2,29.93,WNW,292,2.9,2.9,75,0.00,,---,0.00,VWS V14.00,2013-03-04 04:32:00,
2013-03-03 23:37:00,24.0,17.2,29.93,NNE,22,0.0,2.9,75,0.00,,---,0.00,VWS V14.00,2013-03-04 04:37:00,
2013-03-03 23:42:00,24.0,17.2,29.93,ENE,68,4.9,4.9,75,0.00,,---,0.00,VWS V14.00,2013-03-04 04:42:00,
2013-03-03 23:47:00,24.2,17.4,29.93,SE,135,0.0,4.9,75,0.00,,---,0.00,VWS V14.00,2013-03-04 04:47:00,
2013-03-03 23:52:00,24.4,17.6,29.93,NW,315,2.0,2.0,75,0.00,,---,0.00,VWS V14.00,2013-03-04 04:52:00,
2013-03-03 23:57:00,24.0,17.2,29.92,NW,315,0.0,2.0,75,0.00,,---,0.00,VWS V14.00,2013-03-04 04:57:00,